Flag for Germany Weather past 2 weeks in Waiblingen, Baden-Württemberg, Germany

34 °F

Light snow. Passing clouds.

Feels Like: 31 °F
Forecast: 33 / 39 °F
Wind: 3 mph from South

Location: Stuttgart-Echterdingen

Current Time: Nov 25, 2015 at 3:48:34 AM

Latest Report: Nov 25, 2015 at 3:20 AM

Visibility: 2 mi

Pressure: 29.83 "Hg

Humidity: 93%

Dew point: 32 °F

Location of WaiblingenLocation

Historic Weather in Waiblingen — Graph


Waiblingen temperature yesterday

Maximum temperature yesterday: 37 °F (at 12:20 PM)
Minimum temperature yesterday: 23 °F (at 2:20 AM)
Average temperature yesterday: 31 °F

Past Weeks' High & Low Weather Summary

High68 °F (Nov 10, 3:20 PM)100% (Nov 12, 2:20 AM)30.45 "Hg (Nov 12, 2:20 AM)
Low23 °F (Nov 24, 2:20 AM)23% (Nov 16, 1:20 PM)29.36 "Hg (Nov 21, 2:50 PM)
Average47 °F76%30.08 "Hg
* Reported Nov 10 2:20 AM — Nov 25 2:20 AM, Waiblingen, Weather by CustomWeather, © 2015

Note: Actual official high and low records may vary slightly from our data, if they occured in-between our weather recording intervals... More about our weather records


Waiblingen weather history for previous 24 hours

Time TempWeatherWind HumidityBarometerVisibility
2:20 AM
Wed, Nov 25
34 °FLight snow. Passing clouds.7 mph93%29.86 "Hg4 mi
12:50 AM36 °FPassing clouds.7 mph70%29.86 "HgN/A
12:20 AM36 °FPassing clouds.9 mph65%29.89 "HgN/A
11:50 PM
Tue, Nov 24
36 °FPassing clouds.6 mph65%29.89 "HgN/A
11:20 PM36 °FPassing clouds.3 mph70%29.92 "HgN/A
10:50 PM34 °FPassing clouds.5 mph81%29.95 "HgN/A
10:20 PM34 °FLight snow. Partly cloudy.5 mph81%29.95 "HgN/A
9:50 PM34 °FLight snow. Partly cloudy.7 mph81%29.98 "HgN/A
9:20 PM34 °FLight snow. Passing clouds.6 mph81%29.98 "HgN/A
8:50 PM36 °FPassing clouds.6 mph70%30.01 "HgN/A
8:20 PM36 °FPassing clouds.7 mph75%30.01 "HgN/A
7:50 PM34 °FPassing clouds.7 mph81%30.01 "HgN/A
7:20 PM34 °FPassing clouds.3 mph81%30.04 "HgN/A
6:50 PM34 °FClear.3 mph81%30.04 "Hg10 mi
6:20 PM34 °FClear.3 mph81%30.04 "Hg10 mi
5:50 PM34 °FClear.5 mph81%30.04 "Hg10 mi
5:20 PM34 °FClear.6 mph81%30.07 "Hg10 mi
4:50 PM34 °FPartly cloudy.6 mph81%30.07 "HgN/A
4:20 PM36 °FPartly sunny.6 mph75%30.07 "HgN/A
3:50 PM36 °FPartly sunny.5 mph75%30.09 "HgN/A
3:20 PM36 °FPartly sunny.6 mph70%30.09 "HgN/A
2:50 PM37 °FPartly sunny.7 mph70%30.12 "HgN/A
2:20 PM37 °FPartly sunny.7 mph75%30.12 "HgN/A
1:50 PM37 °FPartly sunny.7 mph70%30.12 "HgN/A
1:20 PM37 °FPartly sunny.7 mph75%30.15 "HgN/A
12:50 PM36 °FPartly sunny.7 mph75%30.15 "HgN/A
12:20 PM37 °FPartly sunny.6 mph75%30.18 "HgN/A
11:50 AM36 °FScattered clouds.5 mph81%30.18 "HgN/A
11:20 AM34 °FScattered clouds.2 mph93%30.21 "HgN/A
10:50 AM32 °FScattered clouds.2 mph100%30.21 "HgN/A
10:20 AM30 °FScattered clouds.2 mph100%30.21 "HgN/A
9:50 AM28 °FScattered clouds.2 mph100%30.21 "Hg5 mi
9:20 AM27 °FSleet. Light fog.2 mph100%30.21 "Hg4 mi
8:50 AM25 °FIce fog.2 mph100%30.24 "Hg0 mi
8:20 AM23 °FSleet. Cloudy.1 mph100%30.24 "Hg1 mi
7:50 AM25 °FIce fog.1 mph100%30.24 "Hg0 mi
7:20 AM25 °FIce fog.2 mph100%30.24 "Hg0 mi
6:50 AM23 °FIce fog.2 mph100%30.24 "Hg0 mi
6:20 AM23 °FIce fog.1 mph100%30.24 "Hg0 mi
5:50 AM25 °FIce fog.1 mph100%30.24 "Hg0 mi
5:20 AM25 °FIce fog.1 mph100%30.24 "Hg1 mi
4:50 AM25 °FIce fog.No wind100%30.24 "Hg1 mi
3:50 AM23 °FIce fog.3 mph100%30.24 "Hg2 mi
3:20 AM23 °FIce fog.1 mph100%30.27 "Hg1 mi
Weather by CustomWeather, © 2015

See weather overviewHow to use our weather pages